Time,TemperatureF,DewpointF,PressureIn,WindDirection,WindDirectionDegrees,WindSpeedMPH,WindSpeedGustMPH,Humidity,HourlyPrecipIn,Conditions,Clouds,dailyrainin,SoftwareType,DateUTC
2013-07-07 00:04:00,85.8,57.3,29.78,East,100,6.0,18.0,38,0.00,,---,0.00,VWS V14.01,2013-07-07 05:04:00,
2013-07-07 00:09:00,85.7,57.2,29.78,East,94,10.0,18.0,38,0.00,,---,0.00,VWS V14.01,2013-07-07 05:09:00,
2013-07-07 00:15:00,85.7,57.2,29.79,SSE,156,6.0,18.0,38,0.00,,---,0.00,VWS V14.01,2013-07-07 05:15:00,
2013-07-07 00:20:00,85.6,57.1,29.79,SSE,158,3.0,18.0,38,0.00,,---,0.00,VWS V14.01,2013-07-07 05:20:00,
2013-07-07 00:25:00,85.7,57.2,29.79,East,79,10.0,18.0,38,0.00,,---,0.00,VWS V14.01,2013-07-07 05:25:00,
2013-07-07 00:30:00,85.6,57.1,29.79,SE,136,6.0,18.0,38,0.00,,---,0.00,VWS V14.01,2013-07-07 05:30:00,
2013-07-07 00:35:00,85.6,57.1,29.79,East,80,7.0,14.0,38,0.00,,---,0.00,VWS V14.01,2013-07-07 05:35:00,
2013-07-07 00:40:00,85.6,57.1,29.79,ENE,68,9.0,14.0,38,0.00,,---,0.00,VWS V14.01,2013-07-07 05:40:00,
2013-07-07 00:45:00,85.7,56.5,29.79,ESE,108,5.0,14.0,37,0.00,,---,0.00,VWS V14.01,2013-07-07 05:45:00,
2013-07-07 00:50:00,85.8,56.5,29.79,ESE,112,8.0,16.0,37,0.00,,---,0.00,VWS V14.01,2013-07-07 05:50:00,
2013-07-07 00:55:00,85.7,56.5,29.79,East,80,6.0,16.0,37,0.00,,---,0.00,VWS V14.01,2013-07-07 05:55:00,
2013-07-07 01:00:00,85.7,56.5,29.79,East,86,9.0,16.0,37,0.00,,---,0.00,VWS V14.01,2013-07-07 06:00:00,
2013-07-07 01:05:00,85.8,56.5,29.79,ESE,103,14.0,14.0,37,0.00,,---,0.00,VWS V14.01,2013-07-07 06:05:00,
2013-07-07 01:10:00,85.8,56.5,29.79,SE,131,7.0,15.0,37,0.00,,---,0.00,VWS V14.01,2013-07-07 06:10:00,
2013-07-07 01:16:00,85.6,56.4,29.79,ESE,108,5.0,15.0,37,0.00,,---,0.00,VWS V14.01,2013-07-07 06:16:00,
2013-07-07 01:21:00,85.4,56.2,29.79,ESE,117,6.0,15.0,37,0.00,,---,0.00,VWS V14.01,2013-07-07 06:21:00,
2013-07-07 01:26:00,85.3,56.8,29.79,East,87,6.0,15.0,38,0.00,,---,0.00,VWS V14.01,2013-07-07 06:26:00,
2013-07-07 01:31:00,85.1,56.7,29.79,ESE,103,5.0,13.0,38,0.00,,---,0.00,VWS V14.01,2013-07-07 06:31:00,
2013-07-07 01:36:00,84.9,56.5,29.79,ESE,105,5.0,13.0,38,0.00,,---,0.00,VWS V14.01,2013-07-07 06:36:00,
2013-07-07 01:41:00,84.7,56.3,29.79,ESE,104,12.0,14.0,38,0.00,,---,0.00,VWS V14.01,2013-07-07 06:41:00,
2013-07-07 01:46:00,84.5,56.1,29.79,East,94,6.0,14.0,38,0.00,,---,0.00,VWS V14.01,2013-07-07 06:46:00,
2013-07-07 01:51:00,84.2,56.6,29.79,ESE,117,6.0,14.0,39,0.00,,---,0.00,VWS V14.01,2013-07-07 06:51:00,
2013-07-07 01:56:00,84.1,56.5,29.79,ESE,107,3.0,15.0,39,0.00,,---,0.00,VWS V14.01,2013-07-07 06:56:00,
2013-07-07 02:02:00,83.8,56.2,29.79,SE,133,6.0,8.0,39,0.00,,---,0.00,VWS V14.01,2013-07-07 07:02:00,
2013-07-07 02:07:00,83.6,56.8,29.79,ESE,121,6.0,12.0,40,0.00,,---,0.00,VWS V14.01,2013-07-07 07:07:00,
2013-07-07 02:12:00,83.4,56.6,29.79,ESE,110,7.0,12.0,40,0.00,,---,0.00,VWS V14.01,2013-07-07 07:12:00,
2013-07-07 02:17:00,83.2,56.4,29.80,East,82,4.0,12.0,40,0.00,,---,0.00,VWS V14.01,2013-07-07 07:17:00,
2013-07-07 02:22:00,83.2,56.4,29.80,ENE,61,5.0,12.0,40,0.00,,---,0.00,VWS V14.01,2013-07-07 07:22:00,
2013-07-07 02:27:00,83.0,56.2,29.79,ESE,112,5.0,12.0,40,0.00,,---,0.00,VWS V14.01,2013-07-07 07:27:00,
2013-07-07 02:32:00,82.9,56.8,29.79,ESE,120,4.0,6.0,41,0.00,,---,0.00,VWS V14.01,2013-07-07 07:32:00,
2013-07-07 02:37:00,82.8,56.7,29.79,East,101,6.0,9.0,41,0.00,,---,0.00,VWS V14.01,2013-07-07 07:37:00,
2013-07-07 02:42:00,82.6,56.5,29.79,ESE,120,4.0,9.0,41,0.00,,---,0.00,VWS V14.01,2013-07-07 07:42:00,
2013-07-07 02:47:00,82.6,56.5,29.79,ESE,119,7.0,9.0,41,0.00,,---,0.00,VWS V14.01,2013-07-07 07:47:00,
2013-07-07 02:52:00,82.6,56.5,29.79,East,91,5.0,11.0,41,0.00,,---,0.00,VWS V14.01,2013-07-07 07:52:00,
2013-07-07 02:57:00,82.5,56.5,29.79,SSE,148,4.0,11.0,41,0.00,,---,0.00,VWS V14.01,2013-07-07 07:57:00,
2013-07-07 03:02:00,82.4,57.0,29.79,SE,124,7.0,8.0,42,0.00,,---,0.00,VWS V14.01,2013-07-07 08:02:00,
2013-07-07 03:08:00,82.4,57.0,29.79,ESE,110,6.0,14.0,42,0.00,,---,0.00,VWS V14.01,2013-07-07 08:08:00,
2013-07-07 03:13:00,82.2,56.8,29.79,SE,141,6.0,14.0,42,0.00,,---,0.00,VWS V14.01,2013-07-07 08:13:00,
2013-07-07 03:18:00,82.1,56.8,29.79,ENE,77,6.0,14.0,42,0.00,,---,0.00,VWS V14.01,2013-07-07 08:18:00,
2013-07-07 03:23:00,81.9,57.2,29.79,ENE,69,5.0,14.0,43,0.00,,---,0.00,VWS V14.01,2013-07-07 08:23:00,
2013-07-07 03:28:00,81.7,57.0,29.79,SE,129,3.0,14.0,43,0.00,,---,0.00,VWS V14.01,2013-07-07 08:28:00,
2013-07-07 03:33:00,81.5,56.9,29.79,SE,128,3.0,8.0,43,0.00,,---,0.00,VWS V14.01,2013-07-07 08:33:00,
2013-07-07 03:38:00,81.3,56.7,29.79,SSE,167,5.0,8.0,43,0.00,,---,0.00,VWS V14.01,2013-07-07 08:38:00,
2013-07-07 03:43:00,81.0,57.1,29.79,East,86,3.0,8.0,44,0.00,,---,0.00,VWS V14.01,2013-07-07 08:43:00,
2013-07-07 03:48:00,80.8,56.9,29.79,ESE,105,5.0,8.0,44,0.00,,---,0.00,VWS V14.01,2013-07-07 08:48:00,
2013-07-07 03:53:00,80.6,56.7,29.79,ESE,108,7.0,8.0,44,0.00,,---,0.00,VWS V14.01,2013-07-07 08:53:00,
2013-07-07 03:58:00,80.5,57.2,29.79,ESE,107,7.0,10.0,45,0.00,,---,0.00,VWS V14.01,2013-07-07 08:58:00,
2013-07-07 04:03:00,80.3,57.0,29.79,ESE,117,6.0,9.0,45,0.00,,---,0.00,VWS V14.01,2013-07-07 09:03:00,
2013-07-07 04:08:00,80.2,57.0,29.79,ESE,120,6.0,9.0,45,0.00,,---,0.00,VWS V14.01,2013-07-07 09:08:00,
2013-07-07 04:14:00,80.1,56.9,29.79,East,93,4.0,9.0,45,0.00,,---,0.00,VWS V14.01,2013-07-07 09:14:00,
2013-07-07 04:19:00,80.0,57.4,29.79,East,96,5.0,9.0,46,0.00,,---,0.00,VWS V14.01,2013-07-07 09:19:00,
2013-07-07 04:24:00,79.9,57.3,29.79,East,90,7.0,9.0,46,0.00,,---,0.00,VWS V14.01,2013-07-07 09:24:00,
2013-07-07 04:29:00,79.8,57.2,29.79,SE,124,5.0,9.0,46,0.00,,---,0.00,VWS V14.01,2013-07-07 09:29:00,
2013-07-07 04:34:00,79.7,57.7,29.79,SE,131,5.0,8.0,47,0.00,,---,0.00,VWS V14.01,2013-07-07 09:34:00,
2013-07-07 04:39:00,79.5,57.5,29.79,ESE,105,5.0,8.0,47,0.00,,---,0.00,VWS V14.01,2013-07-07 09:39:00,
2013-07-07 04:44:00,79.4,57.4,29.79,ESE,105,5.0,9.0,47,0.00,,---,0.00,VWS V14.01,2013-07-07 09:44:00,
2013-07-07 04:49:00,79.3,57.9,29.79,NE,44,4.0,9.0,48,0.00,,---,0.00,VWS V14.01,2013-07-07 09:49:00,
2013-07-07 04:54:00,79.2,57.8,29.79,SE,145,5.0,9.0,48,0.00,,---,0.00,VWS V14.01,2013-07-07 09:54:00,
2013-07-07 04:59:00,79.0,57.7,29.79,SE,135,7.0,10.0,48,0.00,,---,0.00,VWS V14.01,2013-07-07 09:59:00,
2013-07-07 05:04:00,78.8,58.0,29.79,East,98,4.0,9.0,49,0.00,,---,0.00,VWS V14.01,2013-07-07 10:04:00,
2013-07-07 05:09:00,78.7,58.0,29.79,SE,134,6.0,9.0,49,0.00,,---,0.00,VWS V14.01,2013-07-07 10:09:00,
2013-07-07 05:15:00,78.5,57.8,29.79,ESE,114,5.0,9.0,49,0.00,,---,0.00,VWS V14.01,2013-07-07 10:15:00,
2013-07-07 05:20:00,78.3,58.2,29.79,SSE,149,5.0,10.0,50,0.00,,---,0.00,VWS V14.01,2013-07-07 10:20:00,
2013-07-07 05:25:00,78.1,58.0,29.79,SE,134,4.0,10.0,50,0.00,,---,0.00,VWS V14.01,2013-07-07 10:25:00,
2013-07-07 05:30:00,78.0,58.4,29.79,SE,135,7.0,10.0,51,0.00,,---,0.00,VWS V14.01,2013-07-07 10:30:00,
2013-07-07 05:35:00,77.8,58.2,29.80,ESE,104,5.0,9.0,51,0.00,,---,0.00,VWS V14.01,2013-07-07 10:35:00,
2013-07-07 05:40:00,77.6,58.1,29.80,SE,143,6.0,9.0,51,0.00,,---,0.00,VWS V14.01,2013-07-07 10:40:00,
2013-07-07 05:45:00,77.4,58.4,29.80,SSE,159,5.0,9.0,52,0.00,,---,0.00,VWS V14.01,2013-07-07 10:45:00,
2013-07-07 05:50:00,77.4,58.4,29.80,SSE,152,6.0,9.0,52,0.00,,---,0.00,VWS V14.01,2013-07-07 10:50:00,
2013-07-07 05:55:00,77.3,58.3,29.80,SSE,162,6.0,9.0,52,0.00,,---,0.00,VWS V14.01,2013-07-07 10:55:00,
2013-07-07 06:00:00,77.2,58.8,29.80,SSE,148,5.0,9.0,53,0.00,,---,0.00,VWS V14.01,2013-07-07 11:00:00,
2013-07-07 06:05:00,77.1,58.7,29.80,SE,131,4.0,8.0,53,0.00,,---,0.00,VWS V14.01,2013-07-07 11:05:00,
2013-07-07 06:10:00,77.0,58.6,29.81,ESE,111,4.0,8.0,53,0.00,,---,0.00,VWS V14.01,2013-07-07 11:10:00,
2013-07-07 06:16:00,77.0,58.6,29.81,East,101,3.0,8.0,53,0.00,,---,0.00,VWS V14.01,2013-07-07 11:16:00,
2013-07-07 06:21:00,76.9,59.0,29.81,ESE,117,5.0,8.0,54,0.00,,---,0.00,VWS V14.01,2013-07-07 11:21:00,
2013-07-07 06:26:00,76.8,58.9,29.81,SE,134,3.0,8.0,54,0.00,,---,0.00,VWS V14.01,2013-07-07 11:26:00,
2013-07-07 06:31:00,76.8,58.9,29.82,South,179,4.0,6.0,54,0.00,,---,0.00,VWS V14.01,2013-07-07 11:31:00,
2013-07-07 06:36:00,76.6,58.7,29.82,SE,127,2.0,8.0,54,0.00,,---,0.00,VWS V14.01,2013-07-07 11:36:00,
2013-07-07 06:41:00,76.5,59.2,29.82,ESE,122,2.0,8.0,55,0.00,,---,0.00,VWS V14.01,2013-07-07 11:41:00,
2013-07-07 06:46:00,76.5,59.2,29.83,SE,135,2.0,8.0,55,0.00,,---,0.00,VWS V14.01,2013-07-07 11:46:00,
2013-07-07 06:51:00,76.5,59.2,29.83,SE,133,5.0,8.0,55,0.00,,---,0.00,VWS V14.01,2013-07-07 11:51:00,
2013-07-07 06:56:00,76.5,59.2,29.83,SE,125,3.0,8.0,55,0.00,,---,0.00,VWS V14.01,2013-07-07 11:56:00,
2013-07-07 07:01:00,76.5,59.2,29.83,SE,138,3.0,6.0,55,0.00,,---,0.00,VWS V14.01,2013-07-07 12:01:00,
2013-07-07 07:06:00,76.6,59.2,29.83,SE,139,2.0,6.0,55,0.00,,---,0.00,VWS V14.01,2013-07-07 12:06:00,
2013-07-07 07:12:00,76.6,59.2,29.84,SSE,149,1.0,6.0,55,0.00,,---,0.00,VWS V14.01,2013-07-07 12:12:00,
2013-07-07 07:17:00,76.6,59.2,29.84,SSW,198,0.0,6.0,55,0.00,,---,0.00,VWS V14.01,2013-07-07 12:17:00,
2013-07-07 07:22:00,76.7,59.3,29.84,SSW,208,1.0,6.0,55,0.00,,---,0.00,VWS V14.01,2013-07-07 12:22:00,
2013-07-07 07:27:00,76.8,59.4,29.85,SE,127,1.0,6.0,55,0.00,,---,0.00,VWS V14.01,2013-07-07 12:27:00,
2013-07-07 07:32:00,76.8,59.9,29.85,East,98,1.0,1.0,56,0.00,,---,0.00,VWS V14.01,2013-07-07 12:32:00,
2013-07-07 07:37:00,76.7,59.8,29.85,SE,142,2.0,2.0,56,0.00,,---,0.00,VWS V14.01,2013-07-07 12:37:00,
2013-07-07 07:42:00,76.9,60.0,29.85,SE,134,1.0,2.0,56,0.00,,---,0.00,VWS V14.01,2013-07-07 12:42:00,
2013-07-07 07:47:00,77.0,60.1,29.85,SE,127,2.0,3.0,56,0.00,,---,0.00,VWS V14.01,2013-07-07 12:47:00,
2013-07-07 07:52:00,77.2,60.3,29.85,SE,135,3.0,4.0,56,0.00,,---,0.00,VWS V14.01,2013-07-07 12:52:00,
2013-07-07 07:57:00,77.5,60.6,29.85,ESE,118,3.0,4.0,56,0.00,,---,0.00,VWS V14.01,2013-07-07 12:57:00,
2013-07-07 08:02:00,78.0,60.5,29.85,SE,133,1.0,5.0,55,0.00,,---,0.00,VWS V14.01,2013-07-07 13:02:00,
2013-07-07 08:07:00,78.6,60.6,29.86,SE,141,3.0,5.0,54,0.00,,---,0.00,VWS V14.01,2013-07-07 13:07:00,
2013-07-07 08:13:00,79.0,61.0,29.86,South,181,6.0,8.0,54,0.00,,---,0.00,VWS V14.01,2013-07-07 13:13:00,
2013-07-07 08:18:00,79.4,60.8,29.86,SSE,150,5.0,8.0,53,0.00,,---,0.00,VWS V14.01,2013-07-07 13:18:00,
2013-07-07 08:23:00,79.6,61.0,29.86,SE,127,4.0,9.0,53,0.00,,---,0.00,VWS V14.01,2013-07-07 13:23:00,
2013-07-07 08:28:00,79.7,61.1,29.86,ESE,110,6.0,9.0,53,0.00,,---,0.00,VWS V14.01,2013-07-07 13:28:00,
2013-07-07 08:33:00,79.8,61.2,29.86,South,170,5.0,9.0,53,0.00,,---,0.00,VWS V14.01,2013-07-07 13:33:00,
2013-07-07 08:38:00,80.1,61.4,29.86,SE,143,6.0,9.0,53,0.00,,---,0.00,VWS V14.01,2013-07-07 13:38:00,
2013-07-07 08:43:00,80.5,61.3,29.86,SSE,162,9.0,10.0,52,0.00,,---,0.00,VWS V14.01,2013-07-07 13:43:00,
2013-07-07 08:48:00,80.7,61.5,29.86,SE,135,9.0,10.0,52,0.00,,---,0.00,VWS V14.01,2013-07-07 13:48:00,
2013-07-07 08:53:00,80.9,61.6,29.86,SSW,202,5.0,11.0,52,0.00,,---,0.00,VWS V14.01,2013-07-07 13:53:00,
2013-07-07 08:58:00,81.2,61.9,29.86,SE,129,9.0,12.0,52,0.00,,---,0.00,VWS V14.01,2013-07-07 13:58:00,
2013-07-07 09:03:00,81.7,62.4,29.87,SE,124,6.0,11.0,52,0.00,,---,0.00,VWS V14.01,2013-07-07 14:03:00,
2013-07-07 09:08:00,81.9,62.0,29.87,SSE,152,12.0,12.0,51,0.00,,---,0.00,VWS V14.01,2013-07-07 14:08:00,
2013-07-07 09:14:00,82.1,62.2,29.87,SSE,167,10.0,13.0,51,0.00,,---,0.00,VWS V14.01,2013-07-07 14:14:00,
2013-07-07 09:19:00,82.1,62.2,29.87,SE,141,7.0,15.0,51,0.00,,---,0.00,VWS V14.01,2013-07-07 14:19:00,
2013-07-07 09:24:00,82.3,62.4,29.87,ESE,120,7.0,15.0,51,0.00,,---,0.00,VWS V14.01,2013-07-07 14:24:00,
2013-07-07 09:29:00,82.6,62.7,29.87,SE,124,9.0,15.0,51,0.00,,---,0.00,VWS V14.01,2013-07-07 14:29:00,
2013-07-07 09:34:00,83.0,62.5,29.87,SSE,155,6.0,12.0,50,0.00,,---,0.00,VWS V14.01,2013-07-07 14:34:00,
2013-07-07 09:39:00,83.4,62.8,29.87,SW,224,11.0,12.0,50,0.00,,---,0.00,VWS V14.01,2013-07-07 14:39:00,
2013-07-07 09:44:00,83.7,62.5,29.87,SSE,165,6.0,12.0,49,0.00,,---,0.00,VWS V14.01,2013-07-07 14:44:00,
2013-07-07 09:49:00,84.0,62.8,29.87,SSE,160,8.0,14.0,49,0.00,,---,0.00,VWS V14.01,2013-07-07 14:49:00,
2013-07-07 09:54:00,84.4,62.6,29.87,South,169,4.0,14.0,48,0.00,,---,0.00,VWS V14.01,2013-07-07 14:54:00,
2013-07-07 09:59:00,85.0,63.1,29.87,South,172,7.0,14.0,48,0.00,,---,0.00,VWS V14.01,2013-07-07 14:59:00,
2013-07-07 10:04:00,85.7,63.2,29.86,SSE,147,5.0,13.0,47,0.00,,---,0.00,VWS V14.01,2013-07-07 15:04:00,
2013-07-07 10:10:00,86.3,63.1,29.86,South,179,7.0,13.0,46,0.00,,---,0.00,VWS V14.01,2013-07-07 15:10:00,
2013-07-07 10:15:00,86.8,62.9,29.86,SE,137,4.0,13.0,45,0.00,,---,0.00,VWS V14.01,2013-07-07 15:15:00,
2013-07-07 10:20:00,87.1,62.6,29.86,SE,133,4.0,13.0,44,0.00,,---,0.00,VWS V14.01,2013-07-07 15:20:00,
2013-07-07 10:25:00,87.8,63.2,29.86,SSE,159,7.0,13.0,44,0.00,,---,0.00,VWS V14.01,2013-07-07 15:25:00,
2013-07-07 10:30:00,88.2,62.9,29.86,West,264,3.0,13.0,43,0.00,,---,0.00,VWS V14.01,2013-07-07 15:30:00,
2013-07-07 10:35:00,88.7,63.3,29.86,SSE,160,11.0,11.0,43,0.00,,---,0.00,VWS V14.01,2013-07-07 15:35:00,
2013-07-07 10:40:00,89.0,63.0,29.86,South,169,6.0,12.0,42,0.00,,---,0.00,VWS V14.01,2013-07-07 15:40:00,
2013-07-07 10:45:00,89.4,63.3,29.86,SSE,152,10.0,13.0,42,0.00,,---,0.00,VWS V14.01,2013-07-07 15:45:00,
2013-07-07 10:50:00,89.9,62.4,29.86,SSW,197,4.0,13.0,40,0.00,,---,0.00,VWS V14.01,2013-07-07 15:50:00,
2013-07-07 10:55:00,90.2,62.6,29.86,SW,219,7.0,13.0,40,0.00,,---,0.00,VWS V14.01,2013-07-07 15:55:00,
2013-07-07 11:00:00,90.6,62.3,29.86,South,169,5.0,14.0,39,0.00,,---,0.00,VWS V14.01,2013-07-07 16:00:00,
2013-07-07 11:06:00,91.1,62.7,29.86,SSE,148,8.0,11.0,39,0.00,,---,0.00,VWS V14.01,2013-07-07 16:06:00,
2013-07-07 11:11:00,91.3,62.9,29.85,SSE,167,3.0,14.0,39,0.00,,---,0.00,VWS V14.01,2013-07-07 16:11:00,
2013-07-07 11:16:00,92.1,62.9,29.86,SSE,156,15.0,15.0,38,0.00,,---,0.00,VWS V14.01,2013-07-07 16:16:00,
2013-07-07 11:21:00,92.1,62.1,29.86,ESE,118,5.0,15.0,37,0.00,,---,0.00,VWS V14.01,2013-07-07 16:21:00,
2013-07-07 11:26:00,92.2,62.2,29.86,SSE,150,13.0,16.0,37,0.00,,---,0.00,VWS V14.01,2013-07-07 16:26:00,
2013-07-07 11:31:00,92.2,62.2,29.85,South,179,9.0,14.0,37,0.00,,---,0.00,VWS V14.01,2013-07-07 16:31:00,
2013-07-07 11:36:00,92.5,62.5,29.85,SSW,210,12.0,14.0,37,0.00,,---,0.00,VWS V14.01,2013-07-07 16:36:00,
2013-07-07 11:41:00,92.8,62.0,29.85,SSE,158,9.0,14.0,36,0.00,,---,0.00,VWS V14.01,2013-07-07 16:41:00,
2013-07-07 11:46:00,93.0,62.1,29.85,ESE,121,7.0,14.0,36,0.00,,---,0.00,VWS V14.01,2013-07-07 16:46:00,
2013-07-07 11:51:00,93.3,61.6,29.85,SE,129,9.0,15.0,35,0.00,,---,0.00,VWS V14.01,2013-07-07 16:51:00,
2013-07-07 11:56:00,93.4,62.5,29.85,SSW,205,6.0,15.0,36,0.00,,---,0.00,VWS V14.01,2013-07-07 16:56:00,
2013-07-07 12:02:00,93.6,61.0,29.85,SE,139,10.0,11.0,34,0.00,,---,0.00,VWS V14.01,2013-07-07 17:02:00,
2013-07-07 12:07:00,93.7,61.9,29.85,South,172,5.0,14.0,35,0.00,,---,0.00,VWS V14.01,2013-07-07 17:07:00,
2013-07-07 12:12:00,94.2,62.4,29.84,SSE,149,9.0,14.0,35,0.00,,---,0.00,VWS V14.01,2013-07-07 17:12:00,
2013-07-07 12:17:00,94.4,61.7,29.85,West,269,8.0,15.0,34,0.00,,---,0.00,VWS V14.01,2013-07-07 17:17:00,
2013-07-07 12:22:00,94.8,61.2,29.85,SSE,160,3.0,15.0,33,0.00,,---,0.00,VWS V14.01,2013-07-07 17:22:00,
2013-07-07 12:27:00,95.0,62.3,29.85,SSE,159,8.0,15.0,34,0.00,,---,0.00,VWS V14.01,2013-07-07 17:27:00,
2013-07-07 12:32:00,95.0,61.4,29.84,SE,132,9.0,12.0,33,0.00,,---,0.00,VWS V14.01,2013-07-07 17:32:00,
2013-07-07 12:37:00,94.5,61.0,29.84,SE,131,9.0,15.0,33,0.00,,---,0.00,VWS V14.01,2013-07-07 17:37:00,
2013-07-07 12:42:00,95.2,61.6,29.84,SE,142,4.0,15.0,33,0.00,,---,0.00,VWS V14.01,2013-07-07 17:42:00,
2013-07-07 12:47:00,95.8,61.2,29.84,SSE,150,12.0,15.0,32,0.00,,---,0.00,VWS V14.01,2013-07-07 17:47:00,
2013-07-07 12:52:00,95.2,61.6,29.84,South,189,7.0,15.0,33,0.00,,---,0.00,VWS V14.01,2013-07-07 17:52:00,
2013-07-07 12:58:00,95.4,61.8,29.84,SE,134,7.0,15.0,33,0.00,,---,0.00,VWS V14.01,2013-07-07 17:58:00,
2013-07-07 13:03:00,95.7,62.0,29.83,South,181,6.0,11.0,33,0.00,,---,0.00,VWS V14.01,2013-07-07 18:03:00,
2013-07-07 13:08:00,95.7,61.2,29.83,West,260,5.0,15.0,32,0.00,,---,0.00,VWS V14.01,2013-07-07 18:08:00,
2013-07-07 13:13:00,95.7,62.0,29.83,SSE,149,11.0,15.0,33,0.00,,---,0.00,VWS V14.01,2013-07-07 18:13:00,
2013-07-07 13:18:00,96.1,61.5,29.83,SSW,204,5.0,15.0,32,0.00,,---,0.00,VWS V14.01,2013-07-07 18:18:00,
2013-07-07 13:23:00,96.1,61.5,29.83,SSE,147,7.0,15.0,32,0.00,,---,0.00,VWS V14.01,2013-07-07 18:23:00,
2013-07-07 13:28:00,96.0,62.3,29.83,ENE,77,3.0,15.0,33,0.00,,---,0.00,VWS V14.01,2013-07-07 18:28:00,
2013-07-07 13:33:00,96.6,61.0,29.83,SSE,160,6.0,14.0,31,0.00,,---,0.00,VWS V14.01,2013-07-07 18:33:00,
2013-07-07 13:38:00,97.3,59.8,29.83,SE,134,3.0,14.0,29,0.00,,---,0.00,VWS V14.01,2013-07-07 18:38:00,
2013-07-07 13:43:00,96.9,60.4,29.82,ENE,76,7.0,15.0,30,0.00,,---,0.00,VWS V14.01,2013-07-07 18:43:00,
2013-07-07 13:48:00,96.9,60.4,29.83,SSW,205,7.0,20.0,30,0.00,,---,0.00,VWS V14.01,2013-07-07 18:48:00,
2013-07-07 13:53:00,96.8,60.3,29.83,ESE,105,12.0,20.0,30,0.00,,---,0.00,VWS V14.01,2013-07-07 18:53:00,
2013-07-07 13:58:00,97.0,61.4,29.83,SSE,158,6.0,20.0,31,0.00,,---,0.00,VWS V14.01,2013-07-07 18:58:00,
2013-07-07 14:04:00,97.1,60.5,29.82,SE,133,7.0,13.0,30,0.00,,---,0.00,VWS V14.01,2013-07-07 19:04:00,
2013-07-07 14:09:00,97.3,60.7,29.82,SSE,165,8.0,15.0,30,0.00,,---,0.00,VWS V14.01,2013-07-07 19:09:00,
2013-07-07 14:14:00,97.3,60.7,29.82,East,94,6.0,16.0,30,0.00,,---,0.00,VWS V14.01,2013-07-07 19:14:00,
2013-07-07 14:19:00,96.8,60.3,29.82,ESE,108,4.0,16.0,30,0.00,,---,0.00,VWS V14.01,2013-07-07 19:19:00,
2013-07-07 14:24:00,97.3,62.5,29.82,ENE,75,7.0,16.0,32,0.00,,---,0.00,VWS V14.01,2013-07-07 19:24:00,
2013-07-07 14:29:00,97.5,61.8,29.82,SSE,151,14.0,17.0,31,0.00,,---,0.00,VWS V14.01,2013-07-07 19:29:00,
2013-07-07 14:34:00,97.2,62.5,29.81,South,177,14.0,15.0,32,0.00,,---,0.00,VWS V14.01,2013-07-07 19:34:00,
2013-07-07 14:39:00,97.4,61.7,29.82,SSE,148,10.0,18.0,31,0.00,,---,0.00,VWS V14.01,2013-07-07 19:39:00,
2013-07-07 14:44:00,97.2,62.5,29.81,ESE,111,6.0,18.0,32,0.00,,---,0.00,VWS V14.01,2013-07-07 19:44:00,
2013-07-07 14:49:00,96.9,62.2,29.81,East,82,9.0,18.0,32,0.00,,---,0.00,VWS V14.01,2013-07-07 19:49:00,
2013-07-07 14:55:00,97.9,62.2,29.81,SW,221,13.0,20.0,31,0.00,,---,0.00,VWS V14.01,2013-07-07 19:55:00,
2013-07-07 15:00:00,98.3,62.5,29.80,SSE,150,10.0,20.0,31,0.00,,---,0.00,VWS V14.01,2013-07-07 20:00:00,
2013-07-07 15:05:00,99.0,62.2,29.81,ESE,123,13.0,16.0,30,0.00,,---,0.00,VWS V14.01,2013-07-07 20:05:00,
2013-07-07 15:10:00,98.6,62.8,29.81,SE,124,7.0,17.0,31,0.00,,---,0.00,VWS V14.01,2013-07-07 20:10:00,
2013-07-07 15:15:00,97.8,62.1,29.81,South,172,10.0,17.0,31,0.00,,---,0.00,VWS V14.01,2013-07-07 20:15:00,
2013-07-07 15:20:00,97.6,61.9,29.80,SE,139,7.0,17.0,31,0.00,,---,0.00,VWS V14.01,2013-07-07 20:20:00,
2013-07-07 15:25:00,98.0,62.2,29.80,SE,138,10.0,17.0,31,0.00,,---,0.00,VWS V14.01,2013-07-07 20:25:00,
2013-07-07 15:30:00,97.4,61.7,29.80,East,87,5.0,17.0,31,0.00,,---,0.00,VWS V14.01,2013-07-07 20:30:00,
2013-07-07 15:35:00,97.7,61.0,29.80,SE,127,3.0,13.0,30,0.00,,---,0.00,VWS V14.01,2013-07-07 20:35:00,
2013-07-07 15:40:00,98.5,60.8,29.80,SE,131,8.0,17.0,29,0.00,,---,0.00,VWS V14.01,2013-07-07 20:40:00,
2013-07-07 15:45:00,98.6,60.9,29.80,SE,146,9.0,17.0,29,0.00,,---,0.00,VWS V14.01,2013-07-07 20:45:00,
2013-07-07 15:51:00,98.7,61.0,29.80,East,84,8.0,17.0,29,0.00,,---,0.00,VWS V14.01,2013-07-07 20:51:00,
2013-07-07 15:56:00,98.8,61.0,29.80,ESE,106,4.0,17.0,29,0.00,,---,0.00,VWS V14.01,2013-07-07 20:56:00,
2013-07-07 16:01:00,98.8,60.0,29.80,ESE,111,9.0,11.0,28,0.00,,---,0.00,VWS V14.01,2013-07-07 21:01:00,
2013-07-07 16:06:00,98.4,61.7,29.80,East,91,9.0,14.0,30,0.00,,---,0.00,VWS V14.01,2013-07-07 21:06:00,
2013-07-07 16:11:00,98.2,61.5,29.79,SSE,167,5.0,19.0,30,0.00,,---,0.00,VWS V14.01,2013-07-07 21:11:00,
2013-07-07 16:16:00,98.7,61.9,29.79,SSE,148,12.0,19.0,30,0.00,,---,0.00,VWS V14.01,2013-07-07 21:16:00,
2013-07-07 16:21:00,98.4,61.7,29.79,East,87,5.0,19.0,30,0.00,,---,0.00,VWS V14.01,2013-07-07 21:21:00,
2013-07-07 16:26:00,98.5,61.7,29.79,ESE,110,11.0,19.0,30,0.00,,---,0.00,VWS V14.01,2013-07-07 21:26:00,
2013-07-07 16:31:00,98.5,61.7,29.79,SE,145,13.0,14.0,30,0.00,,---,0.00,VWS V14.01,2013-07-07 21:31:00,
2013-07-07 16:36:00,99.4,61.5,29.79,East,95,10.0,17.0,29,0.00,,---,0.00,VWS V14.01,2013-07-07 21:36:00,
2013-07-07 16:41:00,98.4,60.7,29.78,ESE,117,8.0,17.0,29,0.00,,---,0.00,VWS V14.01,2013-07-07 21:41:00,
2013-07-07 16:47:00,97.9,61.2,29.78,SE,143,7.0,17.0,30,0.00,,---,0.00,VWS V14.01,2013-07-07 21:47:00,
2013-07-07 16:52:00,98.6,60.9,29.78,SSE,152,5.0,17.0,29,0.00,,---,0.00,VWS V14.01,2013-07-07 21:52:00,
2013-07-07 16:57:00,98.3,61.6,29.78,East,83,10.0,17.0,30,0.00,,---,0.00,VWS V14.01,2013-07-07 21:57:00,
2013-07-07 17:02:00,98.3,61.6,29.78,SE,142,9.0,10.0,30,0.00,,---,0.00,VWS V14.01,2013-07-07 22:02:00,
2013-07-07 17:07:00,98.0,61.3,29.78,ESE,107,6.0,10.0,30,0.00,,---,0.00,VWS V14.01,2013-07-07 22:07:00,
2013-07-07 17:12:00,98.4,62.6,29.78,East,93,6.0,10.0,31,0.00,,---,0.00,VWS V14.01,2013-07-07 22:12:00,
2013-07-07 17:17:00,98.3,62.5,29.78,SE,124,12.0,20.0,31,0.00,,---,0.00,VWS V14.01,2013-07-07 22:17:00,
2013-07-07 17:22:00,98.6,61.8,29.78,East,99,4.0,20.0,30,0.00,,---,0.00,VWS V14.01,2013-07-07 22:22:00,
2013-07-07 17:27:00,98.7,61.9,29.78,East,98,6.0,20.0,30,0.00,,---,0.00,VWS V14.01,2013-07-07 22:27:00,
2013-07-07 17:32:00,98.2,60.5,29.78,SE,131,5.0,15.0,29,0.00,,---,0.00,VWS V14.01,2013-07-07 22:32:00,
2013-07-07 17:37:00,97.8,61.1,29.78,ESE,105,8.0,16.0,30,0.00,,---,0.00,VWS V14.01,2013-07-07 22:37:00,
2013-07-07 17:42:00,97.8,61.1,29.78,SE,142,6.0,19.0,30,0.00,,---,0.00,VWS V14.01,2013-07-07 22:42:00,
2013-07-07 17:48:00,98.4,60.7,29.78,ESE,115,3.0,19.0,29,0.00,,---,0.00,VWS V14.01,2013-07-07 22:48:00,
2013-07-07 17:53:00,98.5,59.8,29.77,East,79,8.0,19.0,28,0.00,,---,0.00,VWS V14.01,2013-07-07 22:53:00,
2013-07-07 17:58:00,98.8,60.0,29.78,SSE,148,12.0,19.0,28,0.00,,---,0.00,VWS V14.01,2013-07-07 22:58:00,
2013-07-07 18:03:00,98.8,59.0,29.78,ESE,115,6.0,14.0,27,0.00,,---,0.00,VWS V14.01,2013-07-07 23:03:00,
2013-07-07 18:08:00,98.7,59.0,29.77,SSE,162,4.0,14.0,27,0.00,,---,0.00,VWS V14.01,2013-07-07 23:08:00,
2013-07-07 18:13:00,98.6,58.9,29.77,SE,129,5.0,14.0,27,0.00,,---,0.00,VWS V14.01,2013-07-07 23:13:00,
2013-07-07 18:18:00,98.6,57.8,29.77,SSE,147,12.0,20.0,26,0.00,,---,0.00,VWS V14.01,2013-07-07 23:18:00,
2013-07-07 18:23:00,98.3,57.6,29.77,ESE,117,6.0,20.0,26,0.00,,---,0.00,VWS V14.01,2013-07-07 23:23:00,
2013-07-07 18:28:00,98.2,57.5,29.77,NE,53,9.0,20.0,26,0.00,,---,0.00,VWS V14.01,2013-07-07 23:28:00,
2013-07-07 18:33:00,97.8,59.2,29.78,SE,134,13.0,14.0,28,0.00,,---,0.00,VWS V14.01,2013-07-07 23:33:00,
2013-07-07 18:39:00,97.8,58.2,29.77,ESE,115,5.0,15.0,27,0.00,,---,0.00,VWS V14.01,2013-07-07 23:39:00,
2013-07-07 18:44:00,97.8,58.2,29.77,ESE,121,10.0,15.0,27,0.00,,---,0.00,VWS V14.01,2013-07-07 23:44:00,
2013-07-07 18:49:00,97.6,59.0,29.77,ESE,121,9.0,15.0,28,0.00,,---,0.00,VWS V14.01,2013-07-07 23:49:00,
2013-07-07 18:54:00,97.3,58.8,29.78,ESE,111,6.0,15.0,28,0.00,,---,0.00,VWS V14.01,2013-07-07 23:54:00,
2013-07-07 18:59:00,97.4,59.8,29.77,ESE,115,8.0,16.0,29,0.00,,---,0.00,VWS V14.01,2013-07-07 23:59:00,
2013-07-07 19:04:00,97.4,59.8,29.77,East,101,8.0,13.0,29,0.00,,---,0.00,VWS V14.01,2013-07-08 00:04:00,
2013-07-07 19:09:00,97.1,59.6,29.77,SE,145,6.0,14.0,29,0.00,,---,0.00,VWS V14.01,2013-07-08 00:09:00,
2013-07-07 19:14:00,97.1,59.6,29.77,ESE,114,8.0,16.0,29,0.00,,---,0.00,VWS V14.01,2013-07-08 00:14:00,
2013-07-07 19:19:00,96.7,59.2,29.78,ESE,106,8.0,16.0,29,0.00,,---,0.00,VWS V14.01,2013-07-08 00:19:00,
2013-07-07 19:24:00,96.6,59.2,29.78,East,101,8.0,16.0,29,0.00,,---,0.00,VWS V14.01,2013-07-08 00:24:00,
2013-07-07 19:29:00,96.4,59.0,29.78,SE,134,13.0,16.0,29,0.00,,---,0.00,VWS V14.01,2013-07-08 00:29:00,
2013-07-07 19:35:00,96.2,58.8,29.78,SE,143,9.0,11.0,29,0.00,,---,0.00,VWS V14.01,2013-07-08 00:35:00,
2013-07-07 19:40:00,96.1,58.7,29.78,ENE,72,6.0,13.0,29,0.00,,---,0.00,VWS V14.01,2013-07-08 00:40:00,
2013-07-07 19:45:00,95.9,58.6,29.78,East,87,6.0,13.0,29,0.00,,---,0.00,VWS V14.01,2013-07-08 00:45:00,
2013-07-07 19:50:00,95.7,59.3,29.79,East,99,8.0,14.0,30,0.00,,---,0.00,VWS V14.01,2013-07-08 00:50:00,
2013-07-07 19:55:00,95.6,58.3,29.79,ESE,110,8.0,14.0,29,0.00,,---,0.00,VWS V14.01,2013-07-08 00:55:00,
2013-07-07 20:00:00,95.4,59.1,29.79,ESE,108,4.0,14.0,30,0.00,,---,0.00,VWS V14.01,2013-07-08 01:00:00,
2013-07-07 20:05:00,95.3,59.0,29.79,East,85,5.0,9.0,30,0.00,,---,0.00,VWS V14.01,2013-07-08 01:05:00,
2013-07-07 20:10:00,95.1,58.8,29.79,ESE,118,7.0,11.0,30,0.00,,---,0.00,VWS V14.01,2013-07-08 01:10:00,
2013-07-07 20:15:00,94.7,60.3,29.79,ESE,108,7.0,17.0,32,0.00,,---,0.00,VWS V14.01,2013-07-08 01:15:00,
2013-07-07 20:20:00,94.1,60.6,29.80,East,92,11.0,17.0,33,0.00,,---,0.00,VWS V14.01,2013-07-08 01:20:00,
2013-07-07 20:25:00,93.6,60.2,29.79,East,101,11.0,17.0,33,0.00,,---,0.00,VWS V14.01,2013-07-08 01:25:00,
2013-07-07 20:31:00,93.3,59.9,29.80,ESE,111,9.0,16.0,33,0.00,,---,0.00,VWS V14.01,2013-07-08 01:31:00,
2013-07-07 20:36:00,92.9,60.4,29.80,ESE,115,9.0,16.0,34,0.00,,---,0.00,VWS V14.01,2013-07-08 01:36:00,
2013-07-07 20:41:00,92.5,60.1,29.80,ESE,103,11.0,16.0,34,0.00,,---,0.00,VWS V14.01,2013-07-08 01:41:00,
2013-07-07 20:46:00,92.2,59.8,29.80,East,97,8.0,16.0,34,0.00,,---,0.00,VWS V14.01,2013-07-08 01:46:00,
2013-07-07 20:51:00,91.9,59.5,29.80,ENE,73,6.0,16.0,34,0.00,,---,0.00,VWS V14.01,2013-07-08 01:51:00,
2013-07-07 20:56:00,91.7,60.2,29.80,East,101,8.0,16.0,35,0.00,,---,0.00,VWS V14.01,2013-07-08 01:56:00,
2013-07-07 21:01:00,91.4,59.9,29.81,ENE,77,5.0,8.0,35,0.00,,---,0.00,VWS V14.01,2013-07-08 02:01:00,
2013-07-07 21:06:00,90.9,59.5,29.81,East,82,6.0,9.0,35,0.00,,---,0.00,VWS V14.01,2013-07-08 02:06:00,
2013-07-07 21:11:00,90.6,60.0,29.81,ESE,103,7.0,10.0,36,0.00,,---,0.00,VWS V14.01,2013-07-08 02:11:00,
2013-07-07 21:16:00,90.4,59.8,29.81,East,101,5.0,11.0,36,0.00,,---,0.00,VWS V14.01,2013-07-08 02:16:00,
2013-07-07 21:22:00,90.2,59.7,29.82,ESE,104,11.0,12.0,36,0.00,,---,0.00,VWS V14.01,2013-07-08 02:22:00,
2013-07-07 21:27:00,90.1,59.6,29.82,ESE,118,7.0,12.0,36,0.00,,---,0.00,VWS V14.01,2013-07-08 02:27:00,
2013-07-07 21:32:00,89.9,60.2,29.82,ESE,103,8.0,8.0,37,0.00,,---,0.00,VWS V14.01,2013-07-08 02:32:00,
2013-07-07 21:37:00,89.8,60.1,29.82,SE,127,8.0,13.0,37,0.00,,---,0.00,VWS V14.01,2013-07-08 02:37:00,
2013-07-07 21:42:00,89.6,59.9,29.82,ESE,117,7.0,13.0,37,0.00,,---,0.00,VWS V14.01,2013-07-08 02:42:00,
2013-07-07 21:47:00,89.5,59.8,29.82,East,101,9.0,13.0,37,0.00,,---,0.00,VWS V14.01,2013-07-08 02:47:00,
2013-07-07 21:52:00,89.3,60.4,29.82,ESE,104,7.0,13.0,38,0.00,,---,0.00,VWS V14.01,2013-07-08 02:52:00,
2013-07-07 21:57:00,89.0,60.1,29.82,East,82,4.0,13.0,38,0.00,,---,0.00,VWS V14.01,2013-07-08 02:57:00,
2013-07-07 22:02:00,88.5,60.4,29.82,ESE,111,3.0,6.0,39,0.00,,---,0.00,VWS V14.01,2013-07-08 03:02:00,
2013-07-07 22:07:00,88.2,60.1,29.83,ESE,103,5.0,9.0,39,0.00,,---,0.00,VWS V14.01,2013-07-08 03:07:00,
2013-07-07 22:13:00,87.9,59.9,29.83,East,93,4.0,9.0,39,0.00,,---,0.00,VWS V14.01,2013-07-08 03:13:00,
2013-07-07 22:18:00,87.5,60.2,29.83,East,84,4.0,9.0,40,0.00,,---,0.00,VWS V14.01,2013-07-08 03:18:00,
2013-07-07 22:23:00,87.2,60.0,29.83,East,95,5.0,9.0,40,0.00,,---,0.00,VWS V14.01,2013-07-08 03:23:00,
2013-07-07 22:28:00,87.2,60.0,29.83,ENE,68,6.0,10.0,40,0.00,,---,0.00,VWS V14.01,2013-07-08 03:28:00,
2013-07-07 22:33:00,87.0,59.8,29.83,ESE,109,10.0,11.0,40,0.00,,---,0.00,VWS V14.01,2013-07-08 03:33:00,
2013-07-07 22:38:00,87.0,59.8,29.83,ESE,104,9.0,14.0,40,0.00,,---,0.00,VWS V14.01,2013-07-08 03:38:00,
2013-07-07 22:43:00,86.8,60.3,29.84,ESE,105,11.0,14.0,41,0.00,,---,0.00,VWS V14.01,2013-07-08 03:43:00,
2013-07-07 22:48:00,86.8,60.3,29.84,East,84,6.0,14.0,41,0.00,,---,0.00,VWS V14.01,2013-07-08 03:48:00,
2013-07-07 22:53:00,86.8,60.3,29.84,East,91,9.0,14.0,41,0.00,,---,0.00,VWS V14.01,2013-07-08 03:53:00,
2013-07-07 22:58:00,86.7,60.2,29.84,East,82,6.0,15.0,41,0.00,,---,0.00,VWS V14.01,2013-07-08 03:58:00,
2013-07-07 23:01:00,86.6,60.1,29.84,ESE,108,5.0,6.0,41,0.00,,---,0.00,VWS V14.01,2013-07-08 04:01:00,
2013-07-07 23:03:00,86.5,60.0,29.84,ESE,114,6.0,13.0,41,0.00,,---,0.00,VWS V14.01,2013-07-08 04:03:00,
2013-07-07 23:04:00,86.5,60.0,29.84,East,95,12.0,13.0,41,0.00,,---,0.00,VWS V14.01,2013-07-08 04:04:00,
2013-07-07 23:10:00,86.4,59.9,29.84,SE,139,9.0,15.0,41,0.00,,---,0.00,VWS V14.01,2013-07-08 04:10:00,
2013-07-07 23:15:00,86.3,59.8,29.84,East,100,5.0,15.0,41,0.00,,---,0.00,VWS V14.01,2013-07-08 04:15:00,
2013-07-07 23:20:00,86.1,60.3,29.84,East,87,7.0,15.0,42,0.00,,---,0.00,VWS V14.01,2013-07-08 04:20:00,
2013-07-07 23:25:00,86.0,60.3,29.84,ESE,117,8.0,15.0,42,0.00,,---,0.00,VWS V14.01,2013-07-08 04:25:00,
2013-07-07 23:30:00,85.8,60.1,29.84,East,88,8.0,15.0,42,0.00,,---,0.00,VWS V14.01,2013-07-08 04:30:00,
2013-07-07 23:35:00,85.7,60.7,29.84,SSE,148,5.0,14.0,43,0.00,,---,0.00,VWS V14.01,2013-07-08 04:35:00,
2013-07-07 23:40:00,85.4,60.4,29.84,ESE,118,6.0,14.0,43,0.00,,---,0.00,VWS V14.01,2013-07-08 04:40:00,
2013-07-07 23:45:00,85.3,60.9,29.84,East,92,9.0,14.0,44,0.00,,---,0.00,VWS V14.01,2013-07-08 04:45:00,
2013-07-07 23:50:00,85.3,60.9,29.84,SE,127,8.0,14.0,44,0.00,,---,0.00,VWS V14.01,2013-07-08 04:50:00,
2013-07-07 23:55:00,85.3,60.9,29.84,East,100,8.0,14.0,44,0.00,,---,0.00,VWS V14.01,2013-07-08 04:55:00,